Location: Songkhla
(7.2000°N, 100.6000°E)
Time: 05:46:56
(UTC+07:00)

BRICSAT 2 - All Passes

Search period start: 17 June 2021 00:00
Search period end: 27 June 2021 00:00
Orbit: 296 x 658 km, 28.5° (Epoch: 16 June)

Date Brightness Start Highest point End Pass type
(mag) Time Alt. Az. Time Alt. Az. Time Alt. Az.
17 Jun - 00:11:56 10° WNW 00:16:34 44° SSW 00:21:06 10° SE night (unlit)
17 Jun - 12:01:07 10° SSW 12:02:55 17° SSE 12:04:45 10° ESE daylight
17 Jun - 13:39:56 10° W 13:42:20 29° NNW 13:44:58 10° NE daylight
17 Jun - 20:24:37 10° N 20:25:24 10° NNE 20:26:10 10° NNE visible
17 Jun - 22:01:22 10° NW 22:05:43 38° NNE 22:10:15 10° E visible
17 Jun - 23:41:07 10° WNW 23:45:44 44° SSW 23:50:21 10° SE night (unlit)
18 Jun - 11:30:34 10° SSW 11:32:19 17° SSE 11:34:05 10° ESE daylight
18 Jun - 13:09:25 10° W 13:11:45 28° NNW 13:14:12 10° NE daylight
18 Jun - 21:30:36 10° NW 21:34:50 37° NNE 21:39:18 10° E visible
18 Jun - 23:10:16 10° WNW 23:14:50 44° SSW 23:19:28 10° SE night (unlit)
19 Jun - 10:59:53 10° SSW 11:01:39 17° SSE 11:03:25 10° ESE daylight
19 Jun - 12:38:49 10° W 12:41:05 27° NNW 12:43:24 10° NE daylight
19 Jun - 20:59:49 10° NW 21:03:53 36° NNE 21:08:14 10° E visible
19 Jun - 22:39:23 10° WNW 22:43:50 44° SSW 22:48:29 10° SE night (unlit)
20 Jun - 10:29:04 10° SSW 10:30:56 17° SSE 10:32:43 10° ESE daylight
20 Jun - 12:08:06 10° W 12:10:21 27° NNW 12:12:37 10° NE daylight
20 Jun - 20:29:01 10° NW 20:32:53 34° NNE 20:37:06 10° E visible
20 Jun - 22:08:28 10° WNW 22:12:48 44° SSW 22:17:23 10° SE night (unlit)
21 Jun - 09:58:07 10° SSW 10:00:06 18° SSE 10:02:00 10° ESE daylight
21 Jun - 11:37:16 10° W 11:39:33 27° NNW 11:41:48 10° NE daylight
21 Jun - 19:58:11 10° NW 20:01:50 33° NNE 20:05:52 10° E visible
21 Jun - 21:37:32 10° WNW 21:41:42 43° SSW 21:46:13 10° SE visible
22 Jun - 09:27:03 10° SSW 09:29:12 19° SSE 09:31:14 10° ESE daylight
22 Jun - 11:06:18 10° W 11:08:40 28° NNW 11:10:57 10° NE daylight
22 Jun - 19:27:19 10° NW 19:30:44 31° NNE 19:34:33 10° E visible
22 Jun - 21:06:34 10° W 21:10:33 42° SSW 21:14:56 10° SE visible
23 Jun - 08:55:51 10° SSW 08:58:14 20° SSE 09:00:25 10° ESE daylight
23 Jun - 10:35:12 10° W 10:37:43 29° NNW 10:40:04 10° NE daylight
23 Jun - 18:56:26 10° NNW 18:59:37 29° NNE 19:03:10 10° E visible
23 Jun - 20:35:34 10° W 20:39:21 41° SSW 20:43:34 10° SE visible
24 Jun - 08:24:32 10° SSW 08:27:10 21° SSE 08:29:33 10° E daylight
24 Jun - 10:04:00 10° W 10:06:41 31° NNW 10:09:09 10° NE daylight
24 Jun - 18:25:29 10° NNW 18:28:26 27° NNE 18:31:43 10° E daylight
24 Jun - 20:04:32 10° W 20:08:06 40° SSW 20:12:08 10° SE visible
25 Jun - 07:53:07 10° SSW 07:56:00 22° SSE 07:58:35 10° E daylight
25 Jun - 09:32:39 10° W 09:35:34 33° NNW 09:38:10 10° NE daylight
25 Jun - 17:54:30 10° NNW 17:57:13 25° NNE 18:00:14 10° E daylight
25 Jun - 19:33:28 10° W 19:36:50 39° SSW 19:40:38 10° SE visible
26 Jun - 07:21:36 10° SSW 07:24:44 24° SSE 07:27:32 10° E daylight
26 Jun - 09:01:13 10° W 09:04:21 35° NNW 09:07:08 10° NE daylight
26 Jun - 17:23:28 10° NNW 17:25:57 23° NNE 17:28:41 10° E daylight
26 Jun - 19:02:21 10° W 19:05:30 37° SSW 19:09:05 10° SE visible
